timestamp,wind_dir_avg,wind_spd_avg,wind_spd_max_dir,wind_spd_gust,battery_voltage,lat,long
2021-01-30 00:04:01+00:00,31.0,14.32,39.0,16.07,12.49,47.59359,-54.27349
2021-01-30 00:14:01+00:00,19.0,15.92,29.0,18.01,12.41,47.59359,-54.27349
2021-01-30 00:24:01+00:00,35.0,14.16,42.0,16.72,12.41,47.59359,-54.27349
2021-01-30 00:34:01+00:00,29.0,13.64,32.0,16.56,12.41,47.59359,-54.27349
2021-01-30 00:44:01+00:00,25.0,12.45,31.0,13.75,12.41,47.59359,-54.27349
2021-01-30 00:54:01+00:00,21.0,13.15,15.0,14.78,12.41,47.59359,-54.27349
2021-01-30 01:04:01+00:00,25.0,10.66,32.0,12.01,12.41,47.59359,-54.27349
2021-01-30 01:14:01+00:00,26.0,11.98,21.0,13.51,12.41,47.59359,-54.27349
2021-01-30 01:24:01+00:00,22.0,10.47,23.0,12.36,12.41,47.59359,-54.27349
2021-01-30 01:34:01+00:00,25.0,11.7,34.0,13.47,12.41,47.59359,-54.27349
2021-01-30 01:44:01+00:00,16.0,13.35,16.0,15.53,12.41,47.59359,-54.27349
2021-01-30 01:54:01+00:00,17.0,11.74,16.0,13.23,12.41,47.59359,-54.27349
2021-01-30 02:04:01+00:00,20.0,12.45,18.0,14.47,12.41,47.59359,-54.27349
2021-01-30 02:14:01+00:00,22.0,11.8,19.0,13.49,12.41,47.59359,-54.27349
2021-01-30 02:24:01+00:00,18.0,9.98,22.0,12.59,12.41,47.59359,-54.27349
2021-01-30 02:34:01+00:00,21.0,10.95,19.0,12.31,12.41,47.59359,-54.27349
2021-01-30 02:44:01+00:00,19.0,11.99,20.0,13.63,12.41,47.59359,-54.27349
2021-01-30 02:54:01+00:00,19.0,11.92,19.0,14.13,12.41,47.59359,-54.27349
2021-01-30 03:04:01+00:00,21.0,12.36,20.0,14.02,12.41,47.59359,-54.27349
2021-01-30 03:14:01+00:00,18.0,12.0,15.0,14.03,12.33,47.59359,-54.27349
2021-01-30 03:24:01+00:00,22.0,12.19,20.0,13.4,12.33,47.59359,-54.27349
2021-01-30 03:34:01+00:00,26.0,10.96,33.0,13.61,12.33,47.59359,-54.27349
2021-01-30 03:44:01+00:00,24.0,11.26,18.0,12.81,12.33,47.59359,-54.27349
2021-01-30 03:54:01+00:00,18.0,10.2,24.0,12.59,12.33,47.59359,-54.27349
2021-01-30 04:04:01+00:00,19.0,11.46,21.0,12.94,12.33,47.59359,-54.27349
2021-01-30 04:14:01+00:00,25.0,11.36,24.0,13.15,12.33,47.59359,-54.27349
2021-01-30 04:24:01+00:00,16.0,9.94,11.0,13.77,12.33,47.59359,-54.27349
2021-01-30 04:34:01+00:00,25.0,10.97,27.0,12.4,12.33,47.59359,-54.27349
2021-01-30 04:44:01+00:00,18.0,10.1,25.0,12.16,12.33,47.59359,-54.27349
2021-01-30 04:54:01+00:00,15.0,11.99,19.0,13.45,12.33,47.59359,-54.27349
2021-01-30 05:04:01+00:00,15.0,12.74,12.0,14.64,12.33,47.59359,-54.27349
2021-01-30 05:14:01+00:00,22.0,10.63,14.0,11.99,12.33,47.59359,-54.27349
2021-01-30 05:24:01+00:00,3.0,11.84,4.0,14.08,12.33,47.59359,-54.27349
2021-01-30 05:34:01+00:00,14.0,11.98,13.0,14.37,12.33,47.59359,-54.27349
2021-01-30 05:44:01+00:00,9.0,9.4,2.0,11.27,12.33,47.59359,-54.27349
2021-01-30 05:54:01+00:00,21.0,11.72,20.0,13.16,12.33,47.59359,-54.27349
2021-01-30 06:04:01+00:00,1.0,13.48,3.0,15.2,12.33,47.59359,-54.27349
2021-01-30 06:14:01+00:00,12.0,10.78,16.0,14.56,12.25,47.59359,-54.27349
2021-01-30 06:24:01+00:00,13.0,12.09,15.0,14.07,12.25,47.59359,-54.27349
2021-01-30 06:34:01+00:00,359.0,10.84,358.0,12.69,12.25,47.59359,-54.27349
2021-01-30 06:44:01+00:00,2.0,13.77,1.0,15.47,12.25,47.59359,-54.27349
2021-01-30 06:54:01+00:00,1.0,12.39,1.0,14.06,12.25,47.59359,-54.27349
2021-01-30 07:04:01+00:00,8.0,10.71,7.0,12.31,12.25,47.59359,-54.27349
2021-01-30 07:14:01+00:00,7.0,9.99,0.0,11.87,12.25,47.59359,-54.27349
2021-01-30 07:24:01+00:00,6.0,10.43,15.0,12.24,12.25,47.59359,-54.27349
2021-01-30 07:34:01+00:00,9.0,11.65,3.0,14.98,12.25,47.59359,-54.27349
2021-01-30 07:44:01+00:00,14.0,11.3,12.0,13.47,12.25,47.59359,-54.27349
2021-01-30 07:54:01+00:00,0.0,11.13,0.0,12.05,12.25,47.59359,-54.27349
2021-01-30 08:04:01+00:00,7.0,10.63,4.0,12.14,12.25,47.59359,-54.27349
2021-01-30 08:14:01+00:00,9.0,9.78,14.0,11.74,12.25,47.59359,-54.27349
2021-01-30 08:24:01+00:00,5.0,10.19,2.0,11.55,12.25,47.59359,-54.27349
2021-01-30 08:34:01+00:00,5.0,11.29,11.0,12.53,12.25,47.59359,-54.27349
2021-01-30 08:44:01+00:00,359.0,9.35,1.0,11.84,12.25,47.59359,-54.27349
2021-01-30 08:54:01+00:00,10.0,9.15,14.0,10.64,12.25,47.59359,-54.27349
2021-01-30 09:04:01+00:00,357.0,12.05,356.0,13.24,12.25,47.59359,-54.27349
2021-01-30 09:14:01+00:00,358.0,10.62,359.0,12.21,12.25,47.59359,-54.27349
2021-01-30 09:24:01+00:00,358.0,12.02,355.0,13.8,12.25,47.59359,-54.27349
2021-01-30 09:34:01+00:00,1.0,11.35,0.0,12.31,12.25,47.59359,-54.27349
2021-01-30 09:44:01+00:00,358.0,10.19,359.0,11.85,12.25,47.59359,-54.27349
2021-01-30 09:54:01+00:00,1.0,10.25,357.0,11.65,12.25,47.59359,-54.27349
2021-01-30 10:04:01+00:00,4.0,9.48,1.0,11.2,12.25,47.59359,-54.27349
2021-01-30 10:14:01+00:00,340.0,9.55,343.0,10.97,12.25,47.59359,-54.27349
2021-01-30 10:24:01+00:00,344.0,8.78,337.0,10.2,12.25,47.59359,-54.27349
2021-01-30 10:34:01+00:00,336.0,9.02,330.0,10.58,12.25,47.59359,-54.27349
2021-01-30 10:44:01+00:00,333.0,9.35,332.0,10.68,12.25,47.59359,-54.27349
2021-01-30 10:54:01+00:00,330.0,9.1,326.0,10.05,12.25,47.59359,-54.27349
2021-01-30 11:04:01+00:00,331.0,9.13,327.0,10.76,12.25,47.59359,-54.27349
2021-01-30 11:14:01+00:00,329.0,9.41,322.0,10.82,12.25,47.59359,-54.27349
2021-01-30 11:24:01+00:00,333.0,8.59,333.0,10.13,12.25,47.59359,-54.27349
2021-01-30 11:34:01+00:00,332.0,9.36,334.0,10.3,12.25,47.59359,-54.27349
2021-01-30 11:44:01+00:00,328.0,10.13,322.0,11.66,12.25,47.59359,-54.27349
2021-01-30 11:54:01+00:00,332.0,9.37,333.0,10.28,12.25,47.59359,-54.27349
2021-01-30 12:04:01+00:00,331.0,9.16,330.0,10.4,12.25,47.59359,-54.27349
2021-01-30 12:14:01+00:00,327.0,9.3,329.0,10.49,12.97,47.59359,-54.27349
2021-01-30 12:24:01+00:00,329.0,8.03,335.0,9.19,12.97,47.59359,-54.27349
2021-01-30 12:34:01+00:00,332.0,8.3,336.0,9.39,12.97,47.59359,-54.27349
2021-01-30 12:44:01+00:00,332.0,8.74,329.0,9.92,12.97,47.59359,-54.27349
2021-01-30 12:54:01+00:00,329.0,8.51,334.0,10.11,12.97,47.59359,-54.27349
2021-01-30 13:04:01+00:00,328.0,9.18,323.0,10.32,12.97,47.59359,-54.27349
2021-01-30 13:14:01+00:00,332.0,8.65,332.0,9.88,13.76,47.59359,-54.27349
2021-01-30 13:24:01+00:00,338.0,9.13,338.0,10.06,13.76,47.59359,-54.27349
2021-01-30 13:34:01+00:00,339.0,8.66,340.0,10.1,13.76,47.59359,-54.27349
2021-01-30 13:44:01+00:00,338.0,7.97,332.0,9.69,13.76,47.59359,-54.27349
2021-01-30 13:54:01+00:00,342.0,7.8,337.0,8.97,13.76,47.59359,-54.27349
2021-01-30 14:04:01+00:00,353.0,8.44,350.0,9.83,13.76,47.59359,-54.27349
2021-01-30 14:14:01+00:00,355.0,7.69,358.0,9.17,14.16,47.59359,-54.27349
2021-01-30 14:24:01+00:00,341.0,7.53,341.0,8.48,14.16,47.59359,-54.27349
2021-01-30 14:34:01+00:00,352.0,8.67,350.0,9.81,14.16,47.59359,-54.27349
2021-01-30 14:44:01+00:00,351.0,8.11,345.0,9.45,14.16,47.59359,-54.27349
2021-01-30 14:54:01+00:00,346.0,7.66,341.0,8.41,14.16,47.59359,-54.27349
2021-01-30 15:04:01+00:00,358.0,7.09,11.0,8.57,14.16,47.59359,-54.27349
2021-01-30 15:14:01+00:00,3.0,7.77,4.0,9.78,13.92,47.59359,-54.27349
2021-01-30 15:24:01+00:00,0.0,7.42,355.0,8.93,13.92,47.59359,-54.27349
2021-01-30 15:34:01+00:00,357.0,7.72,355.0,8.56,13.92,47.59359,-54.27349
2021-01-30 15:44:01+00:00,358.0,9.47,1.0,13.52,13.92,47.59359,-54.27349
2021-01-30 15:54:01+00:00,356.0,9.68,359.0,10.35,13.92,47.59359,-54.27349
2021-01-30 16:04:01+00:00,349.0,6.39,342.0,7.42,13.92,47.59359,-54.27349
2021-01-30 16:14:01+00:00,354.0,7.44,348.0,8.09,13.68,47.59359,-54.27349
2021-01-30 16:24:01+00:00,0.0,7.35,13.0,9.37,13.68,47.59359,-54.27349
2021-01-30 16:34:01+00:00,338.0,5.2,338.0,6.04,13.68,47.59359,-54.27349
2021-01-30 16:44:01+00:00,327.0,5.93,327.0,6.8,13.68,47.59359,-54.27349
2021-01-30 16:54:01+00:00,331.0,4.62,331.0,5.27,13.68,47.59359,-54.27349
2021-01-30 17:04:01+00:00,330.0,6.86,331.0,7.94,13.68,47.59359,-54.27349
2021-01-30 17:14:01+00:00,334.0,6.38,334.0,7.21,14.32,47.59359,-54.27349
2021-01-30 17:24:01+00:00,339.0,5.57,335.0,6.57,14.32,47.59359,-54.27349
2021-01-30 17:34:01+00:00,323.0,6.48,322.0,7.36,14.32,47.59359,-54.27349
2021-01-30 17:44:01+00:00,344.0,7.47,347.0,8.35,14.32,47.59359,-54.27349
2021-01-30 17:54:01+00:00,340.0,8.71,343.0,9.67,14.32,47.59359,-54.27349
2021-01-30 18:04:01+00:00,338.0,7.48,335.0,8.6,14.32,47.59359,-54.27349
2021-01-30 18:14:01+00:00,340.0,6.8,340.0,8.4,14.32,47.59359,-54.27349
2021-01-30 18:24:01+00:00,335.0,8.02,331.0,8.83,14.32,47.59359,-54.27349
2021-01-30 18:34:01+00:00,351.0,6.04,354.0,6.95,14.32,47.59359,-54.27349
2021-01-30 18:44:01+00:00,351.0,6.86,348.0,7.39,14.32,47.59359,-54.27349
2021-01-30 18:54:01+00:00,345.0,6.18,352.0,7.85,14.32,47.59359,-54.27349
2021-01-30 19:04:01+00:00,335.0,5.32,331.0,6.33,14.32,47.59359,-54.27349
2021-01-30 19:14:01+00:00,333.0,6.13,332.0,6.94,13.44,47.59359,-54.27349
2021-01-30 19:24:01+00:00,321.0,5.83,319.0,6.43,13.44,47.59359,-54.27349
2021-01-30 19:34:01+00:00,323.0,7.19,322.0,8.4,13.44,47.59359,-54.27349
2021-01-30 19:44:01+00:00,325.0,7.44,322.0,8.12,13.44,47.59359,-54.27349
2021-01-30 19:54:01+00:00,327.0,7.09,333.0,8.1,13.44,47.59359,-54.27349
2021-01-30 20:04:01+00:00,330.0,5.92,325.0,6.79,13.44,47.59359,-54.27349
2021-01-30 20:14:01+00:00,322.0,5.78,321.0,6.5,13.29,47.59359,-54.27349
2021-01-30 20:24:01+00:00,350.0,6.02,356.0,7.2,13.29,47.59359,-54.27349
2021-01-30 20:34:01+00:00,341.0,5.13,339.0,5.97,13.29,47.59359,-54.27349
2021-01-30 20:44:01+00:00,341.0,4.11,345.0,5.12,13.29,47.59359,-54.27349
2021-01-30 20:54:01+00:00,3.0,4.22,353.0,4.94,13.29,47.59359,-54.27349
2021-01-30 21:04:01+00:00,3.0,3.79,14.0,4.22,13.29,47.59359,-54.27349
2021-01-30 21:14:01+00:00,2.0,4.39,4.0,5.33,12.65,47.59359,-54.27349
2021-01-30 21:24:01+00:00,8.0,5.77,6.0,7.25,12.65,47.59359,-54.27349
2021-01-30 21:34:01+00:00,11.0,5.74,13.0,6.62,12.65,47.59359,-54.27349
2021-01-30 21:44:01+00:00,15.0,6.06,17.0,6.99,12.65,47.59359,-54.27349
2021-01-30 21:54:01+00:00,4.0,7.36,7.0,8.85,12.65,47.59359,-54.27349
2021-01-30 22:04:01+00:00,10.0,6.07,11.0,7.0,12.65,47.59359,-54.27349
2021-01-30 22:14:01+00:00,8.0,5.94,21.0,7.52,12.57,47.59359,-54.27349
2021-01-30 22:24:01+00:00,12.0,6.86,9.0,9.14,12.57,47.59359,-54.27349
2021-01-30 22:34:01+00:00,6.0,6.51,12.0,8.25,12.57,47.59359,-54.27349
2021-01-30 22:44:01+00:00,9.0,6.64,8.0,7.56,12.57,47.59359,-54.27349
2021-01-30 22:54:01+00:00,6.0,7.3,6.0,8.24,12.57,47.59359,-54.27349
2021-01-30 23:04:01+00:00,17.0,5.09,17.0,5.7,12.57,47.59359,-54.27349
2021-01-30 23:14:01+00:00,4.0,3.85,347.0,4.65,12.49,47.59359,-54.27349
2021-01-30 23:24:01+00:00,359.0,5.74,358.0,6.35,12.49,47.59359,-54.27349
2021-01-30 23:34:01+00:00,16.0,7.78,19.0,8.7,12.49,47.59359,-54.27349
2021-01-30 23:44:01+00:00,4.0,6.93,6.0,7.93,12.49,47.59359,-54.27349
2021-01-30 23:54:01+00:00,21.0,5.86,22.0,6.42,12.49,47.59359,-54.27349
